TimeCDT,TemperatureF,Dew PointF,Humidity,Sea Level PressureIn,VisibilityMPH,Wind Direction,Wind SpeedMPH,Gust SpeedMPH,PrecipitationIn,Events,Conditions,WindDirDegrees,DateUTC
12:53 AM,53.1,48.9,86,30.04,10.0,ESE,9.2,-,N/A,,Clear,120,2013-03-29 05:53:00
1:53 AM,52.0,50.0,93,30.04,10.0,ESE,9.2,-,N/A,,Clear,120,2013-03-29 06:53:00
2:53 AM,50.0,48.9,96,30.04,8.0,SE,5.8,-,N/A,,Clear,140,2013-03-29 07:53:00
3:53 AM,50.0,48.0,93,30.02,8.0,SSE,8.1,-,N/A,,Clear,160,2013-03-29 08:53:00
4:53 AM,52.0,50.0,93,30.01,9.0,SE,8.1,-,N/A,,Clear,140,2013-03-29 09:53:00
5:53 AM,50.0,48.0,93,30.02,6.0,East,3.5,-,N/A,,Clear,90,2013-03-29 10:53:00
6:53 AM,48.0,46.9,96,30.03,4.0,ESE,6.9,-,N/A,,Clear,110,2013-03-29 11:53:00
7:11 AM,48.2,46.4,93,30.06,2.5,SE,5.8,-,N/A,,Partly Cloudy,130,2013-03-29 12:11:00
7:28 AM,48.2,46.4,93,30.07,4.0,SE,6.9,-,N/A,,Clear,140,2013-03-29 12:28:00
7:53 AM,53.1,51.1,93,30.04,5.0,SSE,12.7,-,N/A,,Clear,160,2013-03-29 12:53:00
8:53 AM,55.0,54.0,96,30.06,6.0,SSE,9.2,-,0.00,,Clear,160,2013-03-29 13:53:00
9:10 AM,55.4,53.6,94,30.08,8.0,SSE,9.2,-,N/A,,Partly Cloudy,160,2013-03-29 14:10:00
9:53 AM,60.1,55.9,86,30.06,10.0,South,9.2,-,N/A,,Partly Cloudy,180,2013-03-29 14:53:00
10:53 AM,64.9,55.9,73,30.06,10.0,South,9.2,-,N/A,,Clear,180,2013-03-29 15:53:00
11:53 AM,68.0,55.0,63,30.06,10.0,SSW,10.4,-,N/A,,Scattered Clouds,210,2013-03-29 16:53:00
12:07 PM,68.0,55.4,64,30.09,10.0,SSW,11.5,-,N/A,,Mostly Cloudy,210,2013-03-29 17:07:00
12:26 PM,69.8,55.4,60,30.08,10.0,South,8.1,-,N/A,,Mostly Cloudy,180,2013-03-29 17:26:00
12:53 PM,69.1,55.0,61,30.05,10.0,South,9.2,-,N/A,,Mostly Cloudy,170,2013-03-29 17:53:00
1:53 PM,69.1,55.9,63,30.04,10.0,South,8.1,-,N/A,,Mostly Cloudy,170,2013-03-29 18:53:00
2:53 PM,70.0,55.0,59,30.01,10.0,SSE,10.4,-,N/A,,Mostly Cloudy,150,2013-03-29 19:53:00
3:53 PM,70.0,55.9,61,30.01,10.0,South,9.2,17.3,N/A,,Mostly Cloudy,180,2013-03-29 20:53:00
4:53 PM,70.0,57.0,63,29.99,10.0,South,11.5,-,N/A,,Partly Cloudy,180,2013-03-29 21:53:00
5:53 PM,70.0,55.9,61,29.96,10.0,SSE,17.3,-,N/A,,Clear,150,2013-03-29 22:53:00
6:53 PM,69.1,55.9,63,29.95,10.0,SSE,16.1,-,N/A,,Clear,150,2013-03-29 23:53:00
7:53 PM,64.0,55.0,73,29.97,10.0,ESE,4.6,-,N/A,,Clear,120,2013-03-30 00:53:00
8:53 PM,61.0,55.0,81,29.98,10.0,East,11.5,-,N/A,,Clear,80,2013-03-30 01:53:00
9:53 PM,61.0,55.0,81,29.99,10.0,East,9.2,-,N/A,,Clear,90,2013-03-30 02:53:00
10:53 PM,59.0,54.0,83,30.00,10.0,ESE,6.9,-,N/A,,Partly Cloudy,110,2013-03-30 03:53:00
11:53 PM,57.0,53.1,87,29.99,10.0,SE,5.8,-,N/A,,Partly Cloudy,140,2013-03-30 04:53:00